[[{"header":{"parameterUnit":"m.s-1","parameterCategory":1,"la1":30.2991,"la2":30.254,"lo1":-89.0895,"lo2":-89.0444,"dy":0.0017,"dx":0.0017,"nx":28,"ny":28,"refTime":"2023-09-23T09:00:00:Z","depth":0,"parameterNumber":2,"parameterNumberName":"U-component_of_WINDS"},"data":[0,0,0,0,0,0,0,0,0,0,0,0,0,0,0,0,0,0,0,0,0,0,0,0,0,0,0,0,0,0,0,0,0,0,0,0,0,0,0,0,0,0,0,0,0,0,0,0,0,0,0,0,0,0,0,0,0,0,0.4887,0.4887,0,0.4888,0.4888,0.4888,0.4898,0.4898,0.4898,0.4898,0.4899,0.4899,0.4898,0,0,0,0,0,0,0,0,0,0,0,0,0,0.4891,0.4891,0.4887,0.4887,0.4887,0.4888,0.4888,0.4888,0.4898,0.4898,0.4898,0.4899,0.4899,0.4899,0.4898,0,0,0,0,0,0,0,0,0,0,0,0,0,0.4891,0.4891,0.4887,0.4892,0.4892,0.4888,0.4888,0.4888,0.4898,0.4898,0.4898,0.4899,0.4899,0.4899,0.4898,0.4889,0,0,0.4897,0.4897,0,0,0,0,0,0,0,0,0.4891,0.489,0.4891,0.4891,0.4892,0.4893,0.489,0.4888,0.4898,0.4895,0.4898,0.4899,0.4897,0.4896,0.4896,0.4889,0.4889,0.4897,0.4897,0.4897,0.4897,0,0,0,0,0,0,0,0.4891,0.489,0.4887,0.4891,0.4891,0.4893,0.4894,0.489,0.4894,0.4896,0.4896,0.4896,0.4897,0.4896,0.4896,0.4889,0.4897,0.4897,0.4897,0.4897,0.4874,0.4874,0,0,0,0,0,0,0.489,0.489,0.4887,0.4887,0.4892,0.4893,0.4893,0.4892,0.4894,0.4895,0.4896,0.4897,0.4897,0.4896,0.4896,0.4885,0.4897,0.4897,0.4897,0.4875,0.4874,0.4874,0,0,0,0,0,0,0.489,0.489,0.4887,0.4889,0.4889,0.4893,0.4891,0.4892,0.4891,0.4894,0.4895,0.4895,0.4897,0.4896,0.4891,0.4885,0.4897,0.4896,0.4875,0.4874,0.4874,0.4863,0,0,0,0,0,0,0.489,0.489,0.4886,0.4889,0.4889,0.4882,0.4891,0.4892,0.4891,0.4892,0.4893,0.4894,0.4897,0.4891,0.489,0.4885,0.4896,0.4876,0.4875,0.4874,0.4863,0.4862,0.486,0,0,0,0,0,0.489,0.4883,0.4886,0.4886,0.4885,0.4882,0.4882,0.4886,0.489,0.4887,0.4889,0.4894,0.4886,0.489,0.489,0.4884,0.4876,0.4875,0.4874,0.4864,0.4862,0.486,0,0,0,0,0,0,0.488,0.4884,0.4887,0.4881,0.4881,0.4883,0.4879,0.4883,0.4882,0.4883,0.4888,0.4888,0.4881,0.4882,0.4887,0.4875,0.4882,0.4881,0.4874,0.4872,0.4871,0.487,0.4896,0,0,0,0,0,0.4877,0.4874,0.4878,0.4872,0.4871,0.4875,0.4874,0.4877,0.4878,0.4878,0.4879,0.4879,0.4876,0.4874,0.4872,0.4864,0.4864,0.4859,0.4858,0.4856,0.4855,0.485,0.4848,0.4871,0.4871,0.4871,0,0,0.487,0.4872,0.487,0.4869,0.487,0.4867,0.4875,0.4872,0.4869,0.4877,0.4872,0.4873,0.4873,0.4865,0.4862,0.4866,0.4849,0.4855,0.4854,0.4853,0.4849,0.4846,0.4845,0.487,0.487,0.487,0,0,0.4857,0.4859,0.4853,0.4854,0.4854,0.4857,0.4856,0.4858,0.4859,0.4853,0.4859,0.4856,0.4851,0.4851,0.485,0.4836,0.484,0.4835,0.4826,0.4821,0.482,0.4818,0.4812,0.481,0.4834,0.4834,0.4834,0,0.4849,0.4845,0.485,0.4846,0.4845,0.4852,0.4847,0.4847,0.4847,0.4846,0.485,0.4844,0.4844,0.4837,0.4833,0.4833,0.4831,0.4835,0.4819,0.4818,0.4816,0.4811,0.4809,0.4834,0.4834,0.4834,0.4834,0,0.4835,0.4831,0.4827,0.4827,0.4826,0.4821,0.4825,0.4823,0.4826,0.4828,0.4822,0.4823,0.4821,0.4819,0.4823,0.4812,0.4814,0.4819,0.4826,0.4814,0.4809,0.4807,0.4833,0.4833,0.4833,0.4833,0,0,0.4814,0.4817,0.4815,0.4815,0.4816,0.4814,0.4809,0.4807,0.4805,0.4805,0.4801,0.4796,0.4801,0.48,0.4803,0.4799,0.4787,0.4804,0.4804,0.48,0.4774,0.477,0.4767,0.4789,0.4789,0.4789,0.4774,0,0.4801,0.4794,0.4798,0.4789,0.4786,0.4793,0.4789,0.4789,0.479,0.4787,0.4789,0.4786,0.4792,0.4792,0.4788,0.4789,0.4781,0.479,0.4785,0.4784,0.4784,0.4765,0.4761,0.4747,0.4772,0.4772,0.4771,0,0.4785,0.4784,0.4775,0.4776,0.4775,0.4771,0.477,0.4767,0.4767,0.4768,0.4767,0.4771,0.4766,0.4773,0.4766,0.4772,0.477,0.477,0.477,0.4769,0.4777,0.4763,0.4742,0.474,0.4768,0.4769,0.4769,0,0.477,0.4767,0.4761,0.4761,0.4762,0.4759,0.476,0.476,0.4758,0.4757,0.4756,0.4753,0.4752,0.475,0.4753,0.4758,0.4745,0.4752,0.4745,0.4745,0.4741,0.4741,0.4719,0.4741,0.4741,0.4741,0.4741,0,0.4754,0.4749,0.4754,0.4751,0.4744,0.4749,0.4742,0.4743,0.4743,0.474,0.4745,0.4742,0.4746,0.4743,0.4745,0.4738,0.4737,0.4738,0.4738,0.4737,0.4737,0.4735,0.4736,0.4741,0.4741,0.4741,0.4741,0,0.4737,0.4741,0.4734,0.4737,0.4737,0.4732,0.4733,0.473,0.4732,0.4727,0.4726,0.4729,0.4725,0.4728,0.4724,0.4725,0.4716,0.4718,0.4716,0.4716,0.4708,0.4709,0.4684,0.4681,0.4705,0.4705,0.4705,0,0.4726,0.4722,0.4724,0.4722,0.4722,0.4719,0.4717,0.4722,0.472,0.4719,0.4715,0.4712,0.4709,0.4703,0.4704,0.4701,0.4703,0.4694,0.4702,0.4701,0.4701,0.4701,0.4701,0.4692,0.4692,0.4692,0.4692,0,0.4707,0.4709,0.4707,0.4705,0.4703,0.4702,0.4701,0.4699,0.4703,0.4701,0.4697,0.4695,0.4691,0.4687,0.4684,0.4684,0.4688,0.4689,0.4687,0.4685,0.4684,0.4684,0.4711,0.4689,0.469,0.469,0.469,0.469,0.4692,0.4688,0.4689,0.4686,0.4686,0.4685,0.4681,0.4683,0.468,0.4677,0.468,0.4675,0.4675,0.4671,0.4671,0.4666,0.467,0.4667,0.4666,0.4665,0.4664,0.4685,0.4666,0.4666,0.4666,0.4666,0.4666,0,0.4672,0.4673,0.467,0.4669,0.4667,0.4671,0.467,0.4668,0.4664,0.4663,0.466,0.4656,0.4652,0.4653,0.4649,0.4646,0.4647,0.4645,0.4645,0.4644,0.4661,0.4663,0.4643,0.4643,0.4643,0.4643,0.4643,0.4643,0.4662,0.4656,0.4658,0.4651,0.4652,0.4647,0.4646,0.4645,0.4644,0.4639,0.4636,0.4637,0.4636,0.4633,0.4629,0.463,0.4628,0.4624,0.4625,0.4641,0.4643,0.4645,0.4647,0.4624,0.4624,0.4608,0.4608,0.4608]},{"header":{"parameterUnit":"m.s-1","parameterCategory":1,"la1":30.2991,"la2":30.254,"lo1":-89.0895,"lo2":-89.0444,"dy":0.0017,"dx":0.0017,"nx":28,"ny":28,"refTime":"2023-09-23T09:00:00:Z","depth":0,"parameterNumber":3,"parameterNumberName":"V-component_of_WINDS"},"data":[0,0,0,0,0,0,0,0,0,0,0,0,0,0,0,0,0,0,0,0,0,0,0,0,0,0,0,0,0,0,0,0,0,0,0,0,0,0,0,0,0,0,0,0,0,0,0,0,0,0,0,0,0,0,0,0,0,0,0.6796,0.6795,0,0.6709,0.6708,0.6707,0.6675,0.6676,0.6676,0.6676,0.6584,0.6581,0.6579,0,0,0,0,0,0,0,0,0,0,0,0,0,0.6933,0.693,0.6796,0.6795,0.6794,0.6709,0.6708,0.6706,0.6675,0.6676,0.6676,0.6676,0.6585,0.6582,0.6578,0,0,0,0,0,0,0,0,0,0,0,0,0,0.6862,0.693,0.6796,0.6768,0.6765,0.6709,0.6708,0.6706,0.6675,0.6676,0.6676,0.6677,0.6586,0.6582,0.6578,0.6543,0,0,0.6565,0.6563,0,0,0,0,0,0,0,0,0.6866,0.6857,0.6773,0.677,0.6766,0.6703,0.6722,0.6651,0.6675,0.6709,0.6676,0.6677,0.6623,0.6616,0.6598,0.6539,0.6535,0.6565,0.6562,0.6561,0.6559,0,0,0,0,0,0,0,0.6871,0.6861,0.6761,0.6772,0.6768,0.6759,0.6749,0.6708,0.6664,0.6706,0.6704,0.6694,0.6621,0.6603,0.6596,0.6533,0.6565,0.6561,0.6559,0.6557,0.644,0.6439,0,0,0,0,0,0,0.6881,0.6865,0.6764,0.6759,0.6818,0.6756,0.6745,0.6723,0.6665,0.6656,0.6694,0.6693,0.6609,0.6601,0.6593,0.6548,0.6561,0.6557,0.6554,0.6441,0.644,0.6439,0,0,0,0,0,0,0.6884,0.6872,0.6767,0.6811,0.6797,0.6753,0.6728,0.6721,0.6702,0.6655,0.6647,0.6683,0.6609,0.6599,0.6556,0.6544,0.6555,0.6551,0.6441,0.644,0.6439,0.6457,0,0,0,0,0,0,0.6888,0.6874,0.6861,0.6811,0.6795,0.6733,0.6727,0.6719,0.6696,0.6694,0.6643,0.6635,0.6609,0.6562,0.6552,0.6538,0.6548,0.6442,0.6441,0.644,0.6458,0.6457,0.6457,0,0,0,0,0,0.6893,0.6868,0.686,0.6848,0.6778,0.6732,0.6723,0.6694,0.6695,0.6681,0.6651,0.6637,0.6547,0.6558,0.6546,0.6531,0.6443,0.6441,0.644,0.6458,0.6457,0.6457,0,0,0,0,0,0,0.6916,0.6861,0.6851,0.681,0.6776,0.6727,0.6708,0.6694,0.6659,0.6658,0.6624,0.6612,0.6572,0.6547,0.656,0.6494,0.6494,0.649,0.6512,0.6511,0.651,0.6517,0.6545,0,0,0,0,0,0.6917,0.6886,0.6839,0.6807,0.679,0.6753,0.6732,0.6713,0.6676,0.6661,0.6627,0.6591,0.6555,0.6532,0.6496,0.6454,0.6442,0.6438,0.6438,0.6438,0.6434,0.641,0.6408,0.6434,0.6434,0.6434,0,0,0.6917,0.6883,0.6865,0.6811,0.6782,0.6749,0.674,0.6706,0.6681,0.6655,0.6613,0.6587,0.6544,0.6502,0.6482,0.648,0.6425,0.6436,0.6436,0.6433,0.6408,0.6406,0.6404,0.6433,0.6433,0.6434,0,0,0.6901,0.6873,0.6843,0.6815,0.6772,0.6747,0.674,0.6693,0.6675,0.6632,0.6612,0.6582,0.652,0.649,0.6467,0.644,0.6426,0.643,0.6427,0.6404,0.6402,0.64,0.639,0.6386,0.6427,0.6427,0.6427,0,0.6906,0.6857,0.6829,0.6796,0.6772,0.6748,0.6717,0.6691,0.6638,0.6622,0.6622,0.6544,0.6513,0.6464,0.6457,0.6439,0.643,0.6435,0.6405,0.6402,0.64,0.639,0.6386,0.6427,0.6427,0.6427,0.6427,0,0.6866,0.6832,0.6813,0.6764,0.6738,0.6706,0.6672,0.6649,0.6633,0.6608,0.6564,0.6527,0.6483,0.647,0.6453,0.6418,0.6418,0.6412,0.641,0.6399,0.6388,0.6384,0.6428,0.6428,0.6428,0.6428,0,0,0.6861,0.6797,0.6791,0.6768,0.672,0.6692,0.6659,0.6617,0.6598,0.6563,0.6534,0.6482,0.6476,0.645,0.6429,0.6409,0.639,0.6405,0.6403,0.6403,0.6348,0.6353,0.6349,0.6381,0.638,0.6379,0.6351,0,0.6838,0.6778,0.6752,0.6704,0.6673,0.665,0.6621,0.6587,0.6563,0.6532,0.6505,0.6469,0.6464,0.6448,0.6427,0.6397,0.6378,0.6399,0.6352,0.6351,0.6363,0.6344,0.6348,0.6324,0.6347,0.6347,0.6346,0,0.6802,0.6768,0.6718,0.6673,0.6659,0.6634,0.6593,0.6564,0.6525,0.6509,0.648,0.6461,0.6424,0.6427,0.6376,0.639,0.6369,0.6352,0.635,0.6344,0.6347,0.6336,0.6315,0.6312,0.634,0.634,0.6341,0,0.6803,0.6744,0.6707,0.6688,0.6635,0.6618,0.6595,0.6557,0.6534,0.6498,0.6482,0.6443,0.6421,0.639,0.636,0.6365,0.6311,0.6311,0.6296,0.6297,0.6285,0.6286,0.626,0.6273,0.6273,0.6273,0.6274,0,0.678,0.6749,0.6706,0.6683,0.6648,0.6618,0.6584,0.656,0.6526,0.6497,0.6475,0.6447,0.641,0.6378,0.6354,0.6315,0.6306,0.6291,0.6285,0.6292,0.6294,0.6278,0.6278,0.6272,0.6273,0.6273,0.6273,0,0.6774,0.6744,0.6701,0.6655,0.6643,0.662,0.658,0.6556,0.6531,0.6494,0.6484,0.6444,0.6405,0.6373,0.6322,0.6306,0.6265,0.6258,0.6278,0.6275,0.6261,0.6263,0.6223,0.6216,0.6235,0.6235,0.6235,0,0.6761,0.6737,0.6689,0.6668,0.6646,0.6613,0.6589,0.6559,0.6535,0.649,0.6471,0.6431,0.6397,0.6335,0.6301,0.6262,0.6254,0.6243,0.6247,0.6256,0.6252,0.6254,0.6251,0.6242,0.6242,0.6242,0.6242,0,0.674,0.6726,0.6693,0.6656,0.6628,0.6596,0.6564,0.6548,0.6512,0.6486,0.6446,0.642,0.6368,0.6328,0.6285,0.626,0.6244,0.6241,0.6235,0.6242,0.6254,0.6247,0.6276,0.6241,0.6241,0.6242,0.6242,0.6242,0.6729,0.6707,0.667,0.6634,0.6607,0.6577,0.6553,0.6525,0.6492,0.6448,0.6432,0.6392,0.6353,0.6294,0.627,0.6237,0.6235,0.6227,0.6224,0.6223,0.6223,0.6261,0.6229,0.6229,0.6229,0.6229,0.6229,0,0.6707,0.6682,0.6649,0.6605,0.6577,0.6566,0.653,0.6507,0.6472,0.6438,0.6406,0.636,0.6321,0.6285,0.6244,0.6225,0.6217,0.6215,0.6216,0.621,0.6228,0.6237,0.6222,0.6222,0.6222,0.6222,0.6222,0.6222,0.6691,0.6654,0.6636,0.6584,0.6559,0.652,0.65,0.6473,0.6446,0.6396,0.6364,0.6342,0.6306,0.6263,0.6227,0.6217,0.6202,0.6203,0.6191,0.6208,0.6209,0.621,0.6218,0.62,0.62,0.6176,0.6176,0.6175]}]]